This demonstration page uses our WeatherBlox Daily Observations layout. Learn more.

Left ArrowRight Arrow

Hourly Observations for September 16, 2020

Temp ( °F °C ) Dew Point ( °F °C ) Humidity (%) Winds ( mph kmh ) Pressure ( in mb ) Visibility ( mi km ) Precip ( " mm )
12:54 am 00:54 Clear 61 16.1 58 14.4 90 90 SSE 5 7 30.02 1017 9 14.48406 0 0
1:54 am 01:54 Clear 61 16.1 57 13.9 87 87 S 5 7 30.03 1017 9 14.48406 0 0
2:54 am 02:54 Clear 59 15 56 13.3 90 90 SSE 3 6 30.03 1017 8 12.87472 0 0
3:54 am 03:54 Clear 58 14.4 56 13.3 93 93 SSE 3 6 30.02 1017 8 12.87472 0 0
4:54 am 04:54 Clear 59 15 56 13.3 90 90 Calm 30.02 1017 8 12.87472 0 0
5:54 am 05:54 Clear 55 12.8 53 11.7 93 93 S 5 7 30.03 1017 7 11.26538 0 0
6:54 am 06:54 Clear with Mist and Fog 56 13.3 54 12.2 93 93 SSE 3 6 30.05 1018 4 6.43736 0 0
7:38 am 07:38 Partly Cloudy with Mist and Fog 56 13.3 54 12.2 93 93 S 5 7 30.07 1018 4 6.43736 0 0
7:54 am 07:54 Sunny with Mist and Fog 55 12.8 52 11.1 90 90 S 3 6 30.06 1018 6 9.65604 0 0
8:01 am 08:01 Partly Cloudy with Mist and Fog 57 13.9 54 12.2 90 90 S 3 6 30.07 1018 6 9.65604 0 0
8:54 am 08:54 Sunny with Mist and Fog 62 16.7 58 14.4 86 86 Calm 30.08 1019 7 11.26538 0 0
9:54 am 09:54 Sunny 69 20.6 59 15 70 70 W 8 13 30.08 1019 9 14.48406 0 0
10:54 am 10:54 Sunny 71 21.7 58 14.4 63 63 NNW 12 19 30.1 1019 9 14.48406 0 0
11:54 am 11:54 Sunny 75 23.9 60 15.6 60 60 N 12 19 30.11 1020 9 14.48406 0 0
12:54 pm 12:54 Sunny 78 25.6 60 15.6 54 54 NNE 14 22 30.1 1019 9 14.48406 0 0
1:54 pm 13:54 Sunny 78 25.6 58 14.4 50 50 N 20 31 30.11 1020 8 12.87472 0 0
2:54 pm 14:54 Hazy 78 25.6 55 12.8 45 45 N 22 35 30.11 1020 6 9.65604 0 0
3:54 pm 15:54 Hazy 78 25.6 55 12.8 45 45 NNE 16 26 30.11 1020 6 9.65604 0 0
4:54 pm 16:54 Hazy 77 25 53 11.7 43 43 NNE 14 22 30.11 1020 6 9.65604 0 0
5:54 pm 17:54 Sunny 75 23.9 52 11.1 45 45 N 17 28 30.13 1020 7 11.26538 0 0
6:54 pm 18:54 Sunny 70 21.1 52 11.1 53 53 N 12 19 30.15 1021 7 11.26538 0 0
7:54 pm 19:54 Clear 62 16.7 52 11.1 70 70 N 6 9 30.16 1021 8 12.87472 0 0
8:54 pm 20:54 Clear 64 17.8 52 11.1 65 65 NNW 3 6 30.17 1022 8 12.87472 0 0
9:54 pm 21:54 Clear 60 15.6 51 10.6 72 72 N 7 11 30.19 1022 8 12.87472 0 0
10:54 pm 22:54 Clear 63 17.2 51 10.6 65 65 NNW 8 13 30.19 1022 8 12.87472 0 0
11:54 pm 23:54 Clear 55 12.8 49 9.4 80 80 N 7 11 30.2 1023 8 12.87472 0 0

Powered by AerisWeather